Nomor Peserta dan Nomor Verifikasi UKG 2015 Tabalong (di SMKN 1 Tjg Lab.2)

DMCA.com Protection Status
Loading...
WARTA GURU-- Halo, Bapak/ Ibu Guru yang kami hormati. Semoga Bapak/ Ibu selalu sehat dan dalam lindungan Tuhan YME. Berikut Warta Guru sampaikan nomor peserta dan nomor verifikasi UKG 2015 SMP dan SMA Kabupaten Tabalong.
DAFTAR PESERTA UJI KOMPETENSI 2015
KAB. TABALONG, LOKASI TUK SMK NEGERI 1 TANJUNG  LAB-2
UKG ON-LINE
Tanggal Cetak : 2015-10-29 12:07:52
NO NOMOR PESERTA NAMA TEMPAT TUGAS BIDANG STUDI NOMOR VERIFIKASI
920 201510385492 Nahdiatul Adawiah SMP NEGERI 1 PUGAAN 097 Ilmu Pengetahuan Alam (IPA) 1508385492
921 201510396001 Herlita SMP NEGERI 3 KELUA 156 Bahasa Indonesia 1508396001
922 201510404870 Widawatiningsih SMP NEGERI 7 TANJUNG 154 (PPKn) 150840487A
923 201510429362 Abdurrahim,S.Pd SMP NEGERI 1 UPAU 156 Bahasa Indonesia 1508429362
924 201510435402 Hj. siti ulfah SMP NEGERI 4 BANUA LAWAS 180 Matematika 1508435402
925 201510441709 Pentalia Litik SMP NEGERI 1 TANJUNG 156 Bahasa Indonesia 1508441709
926 201510444861 Ngatmiran SMP NEGERI 9 HARUAI 180 Matematika 1508444861
927 201510453460 Joeni Winarti SMP NEGERI 4 TANJUNG 180 Matematika 150845346A
928 201510455177 Mustianah, S.Ag SMP NEGERI 1 UPAU 810 Bimbingan dan Konseling  1508455177
929 201510467658 Hj. Zainah SMP NEGERI 1 TANTA 100 Ilmu Pengetahuan Sosial (IPS) 1508467658
930 201510486563 Marianti SMP NEGERI 2 UPAU 100 Ilmu Pengetahuan Sosial (IPS) 1508486563
931 201510488882 H. Kamaruddin SMP NEGERI 4 TANJUNG 156 Bahasa Indonesia 1508488882
932 201510502875 Syamsul Ma'arif SMP NEGERI 1 TANJUNG 220 Pendidikan Jasmani dan Kesehatan 1508502875
933 201510503980 Lilis Kurniasih SMP NEGERI 1 HARUAI 180 Matematika 150850398A
934 201510505716 Hairani SMP NEGERI 2 TANTA 097 Ilmu Pengetahuan Alam (IPA) 1508505716
935 201510505753 Hj. Faurina SMP NEGERI 1 MURUNG PUDAK 180 Matematika 1508505753
936 201510508760 Nor Anisah SMP NEGERI 1 KELUA 156 Bahasa Indonesia 150850876A
937 201510511292 Petrus SMP NEGERI 1 UPAU 100 Ilmu Pengetahuan Sosial (IPS) 1508511292
938 201510517868 Hasani SMP NEGERI 3 HARUAI 100 Ilmu Pengetahuan Sosial (IPS) 1508517868
939 201510547813 Herlina SMP NEGERI 2 HARUAI 100 Ilmu Pengetahuan Sosial (IPS) 1508547813
940 201510617454 Umi Wahidatul Maftuhah SDLBN PELITA HATI 823 PLB Tunagrahita 1508617454
941 201511643212 Harsi SDLBN PELITA HATI 822 PLB Tunarungu 1508164321
942 201511661519 Gunadi SDLBN PELITA HATI 823 PLB Tunagrahita 1508166151
943 201511973569 Mahlita SMPLB PELITA HATI TANJUNG 823 PLB Tunagrahita 1508197356
944 201512092737 Faridatul Bahiyah SMPLB PELITA HATI TANJUNG 156 Bahasa Indonesia 1508209273
945 201512199557 Daryanta SMPLB PELITA HATI TANJUNG 822 PLB Tunarungu 1508219955
946 201512231910 Mujiyati SDLBN PELITA HATI 822 PLB Tunarungu 1508223191
947 201512481022 Buyu Kardi SD NEGERI DUHAT 027 Guru Kelas SD (Kelas Atas) 1508248102
948 201512483252 H.jurjani SD NEGERI MURUNG KARANGAN 027 Guru Kelas SD (Kelas Atas) 1508248325
949 201512492427 H. AKHMAD NAPARIN, S.Pd SD NEGERI 1.2 MANGKUSIP 027 Guru Kelas SD (Kelas Atas) 1508249242
950 201512494541 H. SAFARUDIN SD NEGERI NAWIN HILIR 2 027 Guru Kelas SD (Kelas Atas) 1508249454
951 201512496446 Helda Kartani SD NEGERI NAWIN HILIR 1 027 Guru Kelas SD (Kelas Atas) 1508249644
952 201512500207 Mudalena Yudem SD NEGERI 1 KALAHANG 026 Guru Kelas SD (Kelas Bawah) 150825002A
953 201512501436 M. NAWAWI SD NEGERI BINGKAI SARI 027 Guru Kelas SD (Kelas Atas) 1508250143
954 201512501941 ABDUL GANI SD NEGERI 1 MASINGAI I 027 Guru Kelas SD (Kelas Atas) 1508250194
955 201512505075 Hj.marpuah SD NEGERI MURUNG KARANGAN 027 Guru Kelas SD (Kelas Atas) 1508250507
956 201512507554 Nur Khasanah SD NEGERI 1 BILAS 027 Guru Kelas SD (Kelas Atas) 1508250755
957 201512513700 SRIYAMI SD NEGERI DUYUN BARU 026 Guru Kelas SD (Kelas Bawah) 150825137A
958 201512515584 Saifuddin SD N JANGKUNG 3 220 Pendidikan Jasmani dan Kesehatan 1508251558
959 201512517019 Bahrudinnoor SD N HAYUP 1 027 Guru Kelas SD (Kelas Atas) 1508251701
960 201510549071 Rahmanto DINAS PENDIDIKAN 220 Pendidikan Jasmani dan Kesehatan 1508549071
961 201510564438 Wahdinor SMP NEGERI 1 MUARA HARUS 100 Ilmu Pengetahuan Sosial (IPS) 1508564438
962 201510568818 Juhdi Noor SMP NEGERI 1 MURUNG PUDAK 100 Ilmu Pengetahuan Sosial (IPS) 1508568818
963 201510581932 Adi Marjo SMP NEGERI 2 UPAU 220 Pendidikan Jasmani dan Kesehatan 1508581932
964 201510585555 Fitria Mahriati SMP NEGERI 6 HARUAI 180 Matematika 1508585555
965 201510588344 BAMBANG RIYADI SMP NEGERI 3 KELUA1 180 Matematika 1508588344
966 201510589233 Rona Norhana Dewi SMP NEGERI 6 TANJUNG 154 (PPKn) 1508589233
967 201510599763 Saipul Asri SMP NEGERI 3 TANJUNG 097 Ilmu Pengetahuan Alam (IPA) 1508599763
968 201510618962 Ernawati SMP NEGERI 2 TANJUNG 180 Matematika 1508618962
969 201510641085 H. Ajidinsyah SMP NEGERI 1 TANJUNG 097 Ilmu Pengetahuan Alam (IPA) 1508641085
970 201510654465 Tarmiji SMP NEGERI 1 UPAU 180 Matematika 1508654465
971 201510659286 Dewi Lita Kartini SMP NEGERI 5 TANJUNG 180 Matematika 1508659286
972 201510659436 MASRITA SMP NEGERI 1 BANUA LAWAS 154 (PPKn) 1508659436
973 201510661463 Rusli SMP NEGERI 1 KELUA 180 Matematika 1508661463
974 201510661830 Gusti Yuliati, S.Pd. SMP NEGERI 2 MURUNG PUDAK 097 Ilmu Pengetahuan Alam (IPA) 150866183A
975 201510664720 Edi Santoso SMP NEGERI 2 HARUAI 157 Bahasa Inggris 150866472A
976 201510671101 Khairiah SMP NEGERI 1 TANJUNG 156 Bahasa Indonesia 1508671101
977 201510677451 Hj.NORDAHLIANI SMP NEGERI 1 KELUA 156 Bahasa Indonesia 1508677451
978 201510685421 Siti Aisyah SMP NEGERI 3 TANJUNG 180 Matematika 1508685421
979 201510687352 H.Tamrin SMP NEGERI 1 JARO 220 Pendidikan Jasmani dan Kesehatan 1508687352
980 201510694319 Tjatur Wardani SMP NEGERI 5 BINTANG ARA 180 Matematika 1508694319
981 201510705879 Laily Mahrita SMP NEGERI 3 KELUA 100 Ilmu Pengetahuan Sosial (IPS) 1508705879
982 201510739948 Erni Ratina SMP NEGERI 2 UPAU 100 Ilmu Pengetahuan Sosial (IPS) 1508739948
983 201510752252 Nor Adha SMP NEGERI 2 PUGAAN 156 Bahasa Indonesia 1508752252
984 201510759869 Faujiah SMP NEGERI 3 TANTA 154 (PPKn) 1508759869
985 201510763020 Rusnaniyah SMP NEGERI 1 MURUNG PUDAK 156 Bahasa Indonesia 150876302A
986 201510788939 Zainah Wardana SMP NEGERI 1 TANTA 097 Ilmu Pengetahuan Alam (IPA) 1508788939
987 201510799360 Gazali Rahman SMP NEGERI 5 MUARA UYA 180 Matematika 150879936A
988 201510803180 H. Mahlan SMP NEGERI 3 BANUA LAWAS 154 (PPKn) 150880318A
989 201510811439 Meli Yanti SMP NEGERI 2 MUARA UYA 100 Ilmu Pengetahuan Sosial (IPS) 1508811439
990 201510812363 Sukiatno SMP NEGERI 6 HARUAI 097 Ilmu Pengetahuan Alam (IPA) 1508812363
991 201510853479 Rahmawati, S.Pd SMP NEGERI 1 UPAU 156 Bahasa Indonesia 1508853479
992 201510865190 Surya Nada SMP NEGERI 4 TANJUNG 157 Bahasa Inggris 150886519A
993 201510867142 Khusnul Anwar SMP NEGERI 4 MURUNG PUDAK 097 Ilmu Pengetahuan Alam (IPA) 1508867142
994 201510869453 Ah. Baderiansyah SMP NEGERI 1 HARUAI 157 Bahasa Inggris 1508869453
995 201510874569 Fakhriyah SMP NEGERI 1 MUARA HARUS 100 Ilmu Pengetahuan Sosial (IPS) 1508874569
996 201510886998 AKHMAD JUARDI SMP NEGERI 1 BANUA LAWAS 180 Matematika 1508886998
997 201510888021 Supiyah SMP NEGERI 3 MURUNG PUDAK 157 Bahasa Inggris 1508888021
998 201510902482 Risna Amaliawati SMP NEGERI 1 MURUNG PUDAK 097 Ilmu Pengetahuan Alam (IPA) 1508902482
999 201510911289 Hj. Suhartini,S.Pd SMP NEGERI 2 KELUA 156 Bahasa Indonesia 1508911289
1000 201510915389 Fitri Henderiyani SMP NEGERI 3 MURUNG PUDAK 100 Ilmu Pengetahuan Sosial (IPS) 1508915389
1001 201510915736 Fitryani SMP HASBUNALLAH 156 Bahasa Indonesia 1508915736
1002 201510916697 Rahmad SMP NEGERI 7 TANJUNG 157 Bahasa Inggris 1508916697
1003 201510918665 Maisunah SMP NEGERI 1 KELUA 180 Matematika 1508918665
1004 201510922754 Masrai Robianshor Nejar SMP NEGERI 1 TANTA 156 Bahasa Indonesia 1508922754
1005 201510942004 Yardi, S.Pd SMP NEGERI 3 HARUAI 100 Ilmu Pengetahuan Sosial (IPS) 1508942004
1006 201510949077 RUSDIANA SMP NEGERI 1 BANUA LAWAS 810 Bimbingan dan Konseling  1508949077
1007 201510956604 Dewi Sartika Evayanti SMP N 1 TANTA 156 Bahasa Indonesia 1508956604
1008 201510961450 Suyitno SMP NEGERI 4 TANJUNG 100 Ilmu Pengetahuan Sosial (IPS) 150896145A
1009 201510963063 Iskandar SMP NEGERI 1 TANJUNG 154 (PPKn) 1508963063
1010 201510968556 Akhyar Fitri SMP NEGERI 2 HARUAI 154 (PPKn) 1508968556
1011 201510973561 Norhamidah SMP NEGERI 5 TANJUNG 154 (PPKn) 1508973561
1012 201510975314 Fibriyanti,S.Pd SMP NEGERI 2 KELUA 157 Bahasa Inggris 1508975314
1013 201510976657 Syahrian SMP NEGERI 5 HARUAI 156 Bahasa Indonesia 1508976657
1014 201510989531 Waginem Sulistiyani SMP NEGERI 6 TANJUNG 157 Bahasa Inggris 1508989531
1015 201510990019 Nani Susanty SMP NEGERI 1 TANJUNG 097 Ilmu Pengetahuan Alam (IPA) 1508990019
1016 201510998429 Dahliati Rehna SMP PLUS MURUNG PUDAK 180 Matematika 1508998429
1017 201511007799 Sofyan SMP NEGERI 1 PUGAAN 156 Bahasa Indonesia 1508100779
1018 201511011727 Surati SMP NEGERI 1 TANJUNG 220 Pendidikan Jasmani dan Kesehatan 1508101172
1019 201511020733 Sutami SMP NEGERI 2 MUARA UYA 097 Ilmu Pengetahuan Alam (IPA) 1508102073
1020 201511023737 Jumaroh SMP NEGERI 3 KELUA 100 Ilmu Pengetahuan Sosial (IPS) 1508102373
1021 201511031954 Yanis SMP NEGERI 4 TANTA 100 Ilmu Pengetahuan Sosial (IPS) 1508103195
1022 201511036029 Fadlan SMP NEGERI 1 KELUA 156 Bahasa Indonesia 1508103602
1023 201511039013 Koijan SMP NEGERI 9 HARUAI 100 Ilmu Pengetahuan Sosial (IPS) 1508103901
1024 201511062367 Mustafa SMPN 2 KELUA 156 Bahasa Indonesia 1508106236
1025 201511065514 Herman,S.Pd SMP NEGERI 2 KELUA 180 Matematika 1508106551
1026 201511065863 Warnidah SMP PLUS MURUNG PUDAK 810 Bimbingan dan Konseling  1508106586
1027 201511067120 Hari Suprapto SMP NEGERI 8 TANJUNG 100 Ilmu Pengetahuan Sosial (IPS) 1508106712
1028 201511068160 Masdulhak Abdi SMPN 5 TANJUNG 156 Bahasa Indonesia 1508106816
1029 201511068858 Dewi Mayang Sari SMP NEGERI 1 TANJUNG 180 Matematika 1508106885
1030 201511069653 Isna Farida SMP NEGERI 1 JARO 097 Ilmu Pengetahuan Alam (IPA) 1508106965
1031 201511075151 AHMAD LAMO SMP NEGERI 1 MURUNG PUDAK 220 Pendidikan Jasmani dan Kesehatan 1508107515
1032 201511088920 Sugiarti SMP NEGERI 6 TANJUNG 097 Ilmu Pengetahuan Alam (IPA) 1508108892
1033 201511101123 Indah Anggraini SMP NEGERI 3 MURUNG PUDAK 156 Bahasa Indonesia 1508110112
1034 201511103574 Adonia Elsy SMP NEGERI 2 UPAU 810 Bimbingan dan Konseling  1508110357
1035 201511103933 Misnawati SMP NEGERI 1 MURUNG PUDAK 100 Ilmu Pengetahuan Sosial (IPS) 1508110393
1036 201511106908 Sugiati SMP NEGERI 3 KELUA 100 Ilmu Pengetahuan Sosial (IPS) 150811069A
1037 201511111199 Rudiyani SMP NEGERI 4 BANUA LAWAS 810 Bimbingan dan Konseling  1508111119
1038 201511132504 Rudiansyah SMP NEGERI 1 MURUNG PUDAK 100 Ilmu Pengetahuan Sosial (IPS) 150811325A
1039 201511143569 Mariyatul Kiftiah SMP NEGERI 6 TANTA 154 (PPKn) 1508114356
1040 201511167684 Budiyono SMP NEGERI 1 MURUNG PUDAK 157 Bahasa Inggris 1508116768
1041 201511168997 Gusti Pahyuni, S.Pd SMP NEGERI 3 HARUAI 180 Matematika 1508116899
1042 201511181981 Unjeh SMP NEGERI 2 UPAU 180 Matematika 1508118198
1043 201511183913 Maisarah, S.Pd. SMP NEGERI 2 MURUNG PUDAK 097 Ilmu Pengetahuan Alam (IPA) 1508118391
1044 201511192653 Kaspul Asrar SMP NEGERI 2 UPAU 154 (PPKn) 1508119265
1045 201511214204 Supiani SMP NEGERI 4 KELUA 180 Matematika 150812142A
1046 201511217989 Asniah SMP NEGERI 2 TANJUNG 100 Ilmu Pengetahuan Sosial (IPS) 1508121798
1047 201511225449 H.Jantera, S.Pd SMPN 1 Kelua 097 Ilmu Pengetahuan Alam (IPA) 1508122544
1048 201511236878 Hj. Wiwiek Ekowati SMP NEGERI 1 MURUNG PUDAK 180 Matematika 1508123687
1049 201511240182 Sri Eliani SMP NEGERI 2 TANTA 157 Bahasa Inggris 1508124018
1050 201511242578 Hendra Heryadi SMP NEGERI 4 TANTA 180 Matematika 1508124257
1051 201511246327 Katharina Dike Sovia L SMP NEGERI 2 TANTA 157 Bahasa Inggris 1508124632
1052 201511252072 Ahmad Helmy Zajuli SMP NEGERI 1 TANTA 180 Matematika 1508125207
1053 201511297103 Esti Rahmani SMP NEGERI 6 TANJUNG 180 Matematika 150812971A
1054 201511308899 Rusliani SMP NEGERI 1 TANTA 157 Bahasa Inggris 1508130889
1055 201511309840 Ani Fatriah SMP NEGERI 1 KELUA 097 Ilmu Pengetahuan Alam (IPA) 1508130984
1056 201511317287 Saufi SMP NEGERI 3 MUARA UYA 154 (PPKn) 1508131728
1057 201511323385 Surita Heryani SMP NEGERI 2 TANJUNG 097 Ilmu Pengetahuan Alam (IPA) 1508132338
1058 201511331158 Hifziani SMP NEGERI 3 TANJUNG 157 Bahasa Inggris 1508133115
1059 201511336855 Khairani DINAS PENDIDIKAN 100 Ilmu Pengetahuan Sosial (IPS) 1508133685
1060 201511341087 Eka Miliansari SMP NEGERI 3 KELUA 097 Ilmu Pengetahuan Alam (IPA) 1508134108
1061 201511355973 Jakfar SMP NEGERI 1 KELUA 220 Pendidikan Jasmani dan Kesehatan 1508135597
1062 201511358400 Jannatun Aliah SMP NEGERI 1 TANJUNG 156 Bahasa Indonesia 150813584A
1063 201511368355 Hj. Lisa Sanora SMP NEGERI 4 TANJUNG 180 Matematika 1508136835
1064 201511377461 Hj. Minarni SMP NEGERI 1 MURUNG PUDAK 097 Ilmu Pengetahuan Alam (IPA) 1508137746
1065 201511381931 Meriati SMP NEGERI 1 TANTA 100 Ilmu Pengetahuan Sosial (IPS) 1508138193
1066 201511409325 Ida Yuniarti SMP NEGERI 1 MURUNG PUDAK 157 Bahasa Inggris 1508140932
1067 201511410640 Taufiqurrahman SMP NEGERI 1 MUARA HARUS 097 Ilmu Pengetahuan Alam (IPA) 1508141064
1068 201511415667 Kasminingtiyas,A.Md.Pd SMP N 1 JARO 100 Ilmu Pengetahuan Sosial (IPS) 1508141566
1069 201511419764 Ansuristati SMP NEGERI 4 TANJUNG 100 Ilmu Pengetahuan Sosial (IPS) 1508141976
1070 201511455760 Retiana SMP NEGERI 1 TANTA 154 (PPKn) 1508145576
1071 201511464349 Hermin Maslina SMP NEGERI 1 KELUA 154 (PPKn) 1508146434
1072 201511468061 Syarif Hidayat, S.Pd. SMP NEGERI 2 MURUNG PUDAK 220 Pendidikan Jasmani dan Kesehatan 1508146806
1073 201511475985 Rini Sundari SMP NEGERI 7 HARUAI 157 Bahasa Inggris 1508147598
1074 201511487789 Ma'ripatul Jennah, S.Pd SMP NEGERI 3 TANTA 100 Ilmu Pengetahuan Sosial (IPS) 1508148778
1075 201511489035 Hj.Mega Hastuti SMP NEGERI 1 MUARA HARUS 097 Ilmu Pengetahuan Alam (IPA) 1508148903
1076 201511499768 Jainah SMP NEGERI 5 HARUAI 097 Ilmu Pengetahuan Alam (IPA) 1508149976
1077 201511504457 Anikmah SMP NEGERI 1 TANJUNG 097 Ilmu Pengetahuan Alam (IPA) 1508150445
1078 201511520058 Yatini SMP NEGERI 5 TANJUNG 097 Ilmu Pengetahuan Alam (IPA) 1508152005
1079 201511520216 Normiati SMP NEGERI 1 HARUAI 180 Matematika 1508152021
1080 201511521299 Ngesti Pratiti SMP NEGERI 2 TANJUNG 21A Seni Budaya Tari 1508152129
1081 201511541636 Maya Riati, S.Pd. SMP NEGERI 2 MURUNG PUDAK 810 Bimbingan dan Konseling  1508154163
1082 201511562738 Rahminawati SMP NEGERI 3 JARO 190 Biologi 1508156273
1083 201511574897 Hj. Sa'adah Mardiah SMP NEGERI 1 PUGAAN 157 Bahasa Inggris 1508157489
1084 201511590870 Supatmi SMP NEGERI 1 MUARA UYA 154 (PPKn) 1508159087
1085 201511596024 Nona Ratun Kamariah Ma' mun SMP NEGERI 1 TANJUNG 157 Bahasa Inggris 1508159602
1086 201511596552 Abul Hasan SMP NEGERI 1 HARUAI 156 Bahasa Indonesia 1508159655
1087 201511609155 Sugeng Prayitno, S.Pd SMP NEGERI 1 UPAU 097 Ilmu Pengetahuan Alam (IPA) 1508160915
1088 201511631267 Hj. Hasnah SMP NEGERI 1 TANTA 100 Ilmu Pengetahuan Sosial (IPS) 1508163126
1089 201511633485 Saifuddin SMP NEGERI 4 TANJUNG 157 Bahasa Inggris 1508163348
1090 201511634429 Muhammad Muzakir SMP NEGERI 8 TANJUNG 157 Bahasa Inggris 1508163442
1091 201511636406 Winarsih, SE SMP NEGERI 1 UPAU 100 Ilmu Pengetahuan Sosial (IPS) 150816364A
1092 201511648183 Mispah SMP NEGERI 2 TANJUNG 156 Bahasa Indonesia 1508164818
1093 201511651294 Nurrasyidah SMP NEGERI 1 TANJUNG 157 Bahasa Inggris 1508165129
1094 201511651631 Sugianto SMP NEGERI 2 TANTA 810 Bimbingan dan Konseling  1508165163
1095 201511653064 Aniati Mintaningsih SMP NEGERI 4 MURUNG PUDAK 157 Bahasa Inggris 1508165306
1096 201511658576 Ilmi Anderiansyah SMP NEGERI 5 TANJUNG 220 Pendidikan Jasmani dan Kesehatan 1508165857
1097 201511658582 Muhammad Arief Rachman SMP NEGERI 1 TANJUNG 100 Ilmu Pengetahuan Sosial (IPS) 1508165858
1098 201511659913 Hj. MERI RAHMIDA SMP NEGERI 1 BANUA LAWAS 097 Ilmu Pengetahuan Alam (IPA) 1508165991
1099 201511665495 Kamrani,S.Pd SMP NEGERI 2 KELUA 097 Ilmu Pengetahuan Alam (IPA) 1508166549
1100 201511679362 Maimunah SMP NEGERI 3 TANJUNG 100 Ilmu Pengetahuan Sosial (IPS) 1508167936
1101 201511684703 Sucipto SMP NEGERI 2 MUARA UYA 097 Ilmu Pengetahuan Alam (IPA) 150816847A
1102 201511685664 Taufik Rahmani,S.Pd SMP NEGERI 2 KELUA 154 (PPKn) 1508168566
1103 201511701991 H. Akhmad Sukarni SMP NEGERI 7 MUARA UYA 180 Matematika 1508170199
1104 201511711817 Ida Apriani SMP NEGERI 6 TANJUNG 156 Bahasa Indonesia 1508171181
1105 201511722876 Ahmad Rizani SMP NEGERI 6 TANJUNG 100 Ilmu Pengetahuan Sosial (IPS) 1508172287
1106 201511735020 Samdani SMP NEGERI 6 TANJUNG 220 Pendidikan Jasmani dan Kesehatan 1508173502
1107 201511741482 Hayatun nufus SMP NEGERI 7 MUARA UYA 100 Ilmu Pengetahuan Sosial (IPS) 1508174148
1108 201511746906 Al Faridah SMP NEGERI 7 TANJUNG 100 Ilmu Pengetahuan Sosial (IPS) 150817469A
1109 201511750550 Tritura Agustinus Punapino SMP NEGERI 2 TANTA 100 Ilmu Pengetahuan Sosial (IPS) 1508175055
1110 201511750993 H. Anrujut, S. Pd SMP NEGERI 2 BANUA LAWAS 156 Bahasa Indonesia 1508175099
1111 201511760537 Sutarjo SMP NEGERI 1 HARUAI 100 Ilmu Pengetahuan Sosial (IPS) 1508176053
1112 201511763511 Muhammad Yusian Noor SMP NEGERI 3 KELUA 156 Bahasa Indonesia 1508176351
1113 201511790782 E. Karsutiono SMP NEGERI 8 TANJUNG 097 Ilmu Pengetahuan Alam (IPA) 1508179078
1114 201511794702 Noor Aida SMP NEGERI 5 TANJUNG 100 Ilmu Pengetahuan Sosial (IPS) 150817947A
1115 201511803190 Yustina Elifyanti SMP NEGERI 2 MUARA UYA 157 Bahasa Inggris 1508180319
1116 201511803303 Norol Hidayah SMP NEGERI 3 TANJUNG 154 (PPKn) 150818033A
1117 201511807564 Sri Yustina SMP NEGERI 4 TANJUNG 810 Bimbingan dan Konseling  1508180756
1118 201511808608 Siti Saropah SMP NEGERI 2 MUARA UYA 810 Bimbingan dan Konseling  150818086A
1119 201511810997 Muhammad Aini,S.Pd SMP NEGERI 3 HARUAI 810 Bimbingan dan Konseling  1508181099
1120 201511811118 Patjeriah SMP NEGERI 1 TANJUNG 154 (PPKn) 1508181111
1121 201511818821 Rini SMP HASBUNALLAH 180 Matematika 1508181882
1122 201511819765 Paulus Joko Santoso SMP NEGERI 6 TANTA 156 Bahasa Indonesia 1508181976
1123 201511822824 Rusmiana SMP NEGERI 1 MURUNG PUDAK 156 Bahasa Indonesia 1508182282
1124 201511829055 Budiarti SMP NEGERI 1 TANTA 097 Ilmu Pengetahuan Alam (IPA) 1508182905
1125 201511836156 Hj. Alpiah Wahdah SMP NEGERI 1 PUGAAN 100 Ilmu Pengetahuan Sosial (IPS) 1508183615
1126 201511836221 Hj. Haskinah SMP NEGERI 1 TANTA 100 Ilmu Pengetahuan Sosial (IPS) 1508183622
1127 201511836278 Erena Alastri SMP NEGERI 4 TANJUNG 100 Ilmu Pengetahuan Sosial (IPS) 1508183627
1128 201511838560 Khairul Razikin SMP NEGERI 2 TANJUNG 157 Bahasa Inggris 1508183856
1129 201511849785 Dra. Suratmi SMP NEGERI 2 MURUNG PUDAK 156 Bahasa Indonesia 1508184978
1130 201511852606 Casmudin, S.Pd SMP NEGERI 1 UPAU 097 Ilmu Pengetahuan Alam (IPA) 150818526A
1131 201511884260 Ardianson SMP NEGERI 2 UPAU 180 Matematika 1508188426
1132 201511890168 Raihanah SMP NEGERI 6 TANJUNG 100 Ilmu Pengetahuan Sosial (IPS) 1508189016
1133 201511900762 Maralum Pasaribu SMP NEGERI 5 MUARA UYA 154 (PPKn) 1508190076
1134 201511906535 Ridiana Zulhida SMP NEGERI 1 PUGAAN 810 Bimbingan dan Konseling  1508190653
1135 201511911639 Juhri SMP NEGERI 1 MUARA UYA 156 Bahasa Indonesia 1508191163
1136 201511911678 Akhmad Rusdani SMP NEGERI 1 KELUA 100 Ilmu Pengetahuan Sosial (IPS) 1508191167
1137 201511911892 Rabiatul Husnah SMP NEGERI 2 TANJUNG 097 Ilmu Pengetahuan Alam (IPA) 1508191189
1138 201511913881 Hj. Rima Hartati SMP NEGERI 1 PUGAAN 180 Matematika 1508191388
1139 201511925473 Zainal Arifin SMP NEGERI 2 TANJUNG 154 (PPKn) 1508192547
1140 201511928108 NURMAWI SMP NEGERI 1 BANUA LAWAS 157 Bahasa Inggris 150819281A
1141 201511931291 Nurdiansyah SMP NEGERI 6 TANJUNG 810 Bimbingan dan Konseling  1508193129
1142 201511935080 Irmi Rusida SMP NEGERI 2 TANJUNG 810 Bimbingan dan Konseling  1508193508
1143 201511939284 Sucipto Kasbani SMP NEGERI 4 HARUAI 180 Matematika 1508193928
1144 201511962386 Hj. RUKAYAH SMP NEGERI 3 KELUA 810 Bimbingan dan Konseling  1508196238
1145 201511963847 Firdaus SMP NEGERI 3 KELUA 154 (PPKn) 1508196384
1146 201511968838 Esmadi SMP NEGERI 3 TANTA 157 Bahasa Inggris 1508196883
1147 201511970608 Ernawati, SP SMP NEGERI 3 HARUAI 097 Ilmu Pengetahuan Alam (IPA) 150819706A
1148 201511983320 Sugiansyah DINAS PENDIDIKAN 180 Matematika 1508198332
1149 201511984535 Mulyadi SMP NEGERI 3 TANJUNG 220 Pendidikan Jasmani dan Kesehatan 1508198453
1150 201511991050 Haristina Delta SMP NEGERI 3 MUARA UYA 810 Bimbingan dan Konseling  1508199105
1151 201511993825 Rosana SMP NEGERI 1 MUARA UYA 156 Bahasa Indonesia 1508199382
1152 201511993907 Hj. Henny Wardaty SMP NEGERI 3 MURUNG PUDAK 097 Ilmu Pengetahuan Alam (IPA) 150819939A
1153 201511995112 Rita Iskandar SMP NEGERI 7 TANJUNG 157 Bahasa Inggris 1508199511
1154 201512004341 Hj. Ida Ariani, S. Pd. SMP NEGERI 2 TANJUNG 157 Bahasa Inggris 1508200434
1155 201512022737 Hamidah SMP NEGERI 8 TANJUNG 097 Ilmu Pengetahuan Alam (IPA) 1508202273
1156 201512026841 Dius SMA NEGERI 1 TANTA 100 Ilmu Pengetahuan Sosial (IPS) 1508202684
1157 201512038004 H. M . Syamsuri Bahri, S.Pd. SMP NEGERI 2 MURUNG PUDAK 180 Matematika 150820380A
1158 201512038998 Rusmansyah SMP NEGERI 1 HARUAI 154 (PPKn) 1508203899
1159 201512042145 Khusnun Nasikhah SMP NEGERI 3 KELUA 154 (PPKn) 1508204214
1160 201512043010 Ibratun Yuslinah SMP NEGERI 4 MURUNG PUDAK 097 Ilmu Pengetahuan Alam (IPA) 1508204301
1161 201512047938 Parhani SMP NEGERI 2 TANJUNG 100 Ilmu Pengetahuan Sosial (IPS) 1508204793
1162 201512053803 Lukman SMP NEGERI 3 TANTA 097 Ilmu Pengetahuan Alam (IPA) 150820538A
1163 201512070373 Daniel Monop SMP NEGERI 2 UPAU 097 Ilmu Pengetahuan Alam (IPA) 1508207037
1164 201512082565 Ari Siswanti, S.Pd. SMP NEGERI 2 MURUNG PUDAK 154 (PPKn) 1508208256
1165 201512084572 Sayuti SMP NEGERI 3 KELUA 157 Bahasa Inggris 1508208457
1166 201512095061 Taufik Rahmansyah SMP NEGERI 2 TANJUNG 156 Bahasa Indonesia 1508209506
1167 201512097879 JOHAN ARIFIN SMP NEGERI 2 HARUAI 156 Bahasa Indonesia 1508209787
1168 201512098626 H. Kasypurrahmani SMP NEGERI 3 TANJUNG 220 Pendidikan Jasmani dan Kesehatan 1508209862
1169 201512102055 Muslimah, S.Pd.Ing SMP NEGERI 2 MURUNG PUDAK 157 Bahasa Inggris 1508210205
1170 201512102527 Suhaimi SMP NEGERI 6 TANJUNG 100 Ilmu Pengetahuan Sosial (IPS) 1508210252
1171 201512103463 Sudirman SMP NEGERI 2 UPAU 157 Bahasa Inggris 1508210346
1172 201512105105 Misbah SMP NEGERI 1 TANTA 100 Ilmu Pengetahuan Sosial (IPS) 150821051A
1173 201512142941 Hj. Arbayah SMP NEGERI 4 TANJUNG 097 Ilmu Pengetahuan Alam (IPA) 1508214294
1174 201512152424 Barkah Mahrida SMP NEGERI 4 TANJUNG 156 Bahasa Indonesia 1508215242
1175 201512163930 St. Zainatul Uda SMP NEGERI 1 PUGAAN 097 Ilmu Pengetahuan Alam (IPA) 1508216393
1176 201512168737 Pahriani SMP NEGERI 4 TANJUNG 097 Ilmu Pengetahuan Alam (IPA) 1508216873
1177 201512178408 Hajar SMP NEGERI 1 KELUA 097 Ilmu Pengetahuan Alam (IPA) 150821784A
1178 201512190501 Achmad Syahranie SMP NEGERI 6 TANJUNG 100 Ilmu Pengetahuan Sosial (IPS) 150821905A
1179 201512193267 Siti Aminah SMP NEGERI 3 MURUNG PUDAK 180 Matematika 1508219326
1180 201512215665 Sutimbul SMP NEGERI 4 MURUNG PUDAK 154 (PPKn) 1508221566
1181 201512217428 Faridi Hatta SMP NEGERI 3 KELUA 220 Pendidikan Jasmani dan Kesehatan 1508221742
1182 201512221082 Taslihuddin Noor Fadhillah SMP NEGERI 1 KELUA 157 Bahasa Inggris 1508222108
1183 201512228640 Norsilawati SMP NEGERI 3 KELUA 097 Ilmu Pengetahuan Alam (IPA) 1508222864
1184 201512240022 Susiyanti, S.Pd SMP NEGERI 3 HARUAI 157 Bahasa Inggris 1508224002
1185 201512243345 Risna Hayati SMP NEGERI 4 TANJUNG 097 Ilmu Pengetahuan Alam (IPA) 1508224334
1186 201512243420 Noor Hakim SMP NEGERI 2 JARO 810 Bimbingan dan Konseling  1508224342
1187 201512246650 Azwar Effendi SMP NEGERI 8 MUARA UYA 097 Ilmu Pengetahuan Alam (IPA) 1508224665
1188 201512253126 H. Taberani SMP NEGERI 2 TANJUNG 220 Pendidikan Jasmani dan Kesehatan 1508225312
1189 201512257996 Mahriana Hartuti SMP NEGERI 2 TANJUNG 180 Matematika 1508225799
1190 201512260733 Norpah SMP NEGERI 5 MUARA UYA 100 Ilmu Pengetahuan Sosial (IPS) 1508226073
1191 201512264938 Sanusi, S.Pd SMP NEGERI 3 MURUNG PUDAK 180 Matematika 1508226493
1192 201512270750 Hj. Sinar Asiah SMP NEGERI 1 MUARA HARUS 154 (PPKn) 1508227075
1193 201512271530 Mariani SMP NEGERI 1 MUARA UYA 100 Ilmu Pengetahuan Sosial (IPS) 1508227153
1194 201512272858 Sisman, S.Pd SMP NEGERI 1 JARO 097 Ilmu Pengetahuan Alam (IPA) 1508227285
1195 201512273024 Fitriani SMP NEGERI 2 HARUAI 097 Ilmu Pengetahuan Alam (IPA) 1508227302
1196 201512281832 Sadiran SMP NEGERI 2 MUARA UYA 180 Matematika 1508228183
1197 201512288197 Hj. Aluh Minarti SMP NEGERI 1 TANJUNG 180 Matematika 1508228819
1198 201512305733 Arena SMP NEGERI 1 HARUAI 097 Ilmu Pengetahuan Alam (IPA) 1508230573
1199 201512312882 Noorsahadi SMP NEGERI 1 TANTA 220 Pendidikan Jasmani dan Kesehatan 1508231288
1200 201510379723 Muhammad Rusni SMAN 1 TANJUNG 330 TIK/KKPI 1508379723
1201 201510462440 Rabiatul Fitriah SMA HASBUNALLAH 190 Biologi 150846244A
1202 201510485948 MAHMUDDIN SMAN 2 TANJUNG 187 Kimia 1508485948
1203 201510501249 Hj. Amelia Ulfah SMAN 1 TANJUNG 190 Biologi 1508501249
1204 201512053229 SRI MINARTI SMP NEGERI 1 BANUA LAWAS 097 Ilmu Pengetahuan Alam (IPA) 1508205322
1205 201512079240 SUHAIMI SMP NEGERI 3 BANUA LAWAS 180 Matematika 1508207924
1206 201512181010 Ridawati SMP NEGERI 1 HARUAI 810 Bimbingan dan Konseling  1508218101
1207 201512195165 KURTIANA SMP NEGERI 1 BANUA LAWAS 100 Ilmu Pengetahuan Sosial (IPS) 1508219516
1208 201512326393 Asikin,S.Pd.I SMP NEGERI 2 KELUA 100 Ilmu Pengetahuan Sosial (IPS) 1508232639
1209 201512327869 Yadi Karnadi SMP NEGERI 2 MUARA UYA 156 Bahasa Indonesia 1508232786
1210 201512330178 Luthfian Noor SMP NEGERI 1 TANTA 180 Matematika 1508233017
1211 201512333342 Nurhayati SMP NEGERI 1 MUARA UYA 097 Ilmu Pengetahuan Alam (IPA) 1508233334
1212 201512341811 Dewi Rachmawati SMP NEGERI 1 MUARA UYA 180 Matematika 1508234181
1213 201512341847 Surya Ningsih SMP NEGERI 4 MURUNG PUDAK 100 Ilmu Pengetahuan Sosial (IPS) 1508234184
1214 201512361613 Rahmanuddin SMP NEGERI 1 TANTA 154 (PPKn) 1508236161
1215 201512366171 Nurul Mariati SMP NEGERI 7 HARUAI 097 Ilmu Pengetahuan Alam (IPA) 1508236617
1216 201512369986 H. Rusdi Syahlani SMP NEGERI 1 MURUNG PUDAK 097 Ilmu Pengetahuan Alam (IPA) 1508236998
1217 201512372470 Zaleha SMP NEGERI 1 UPAU 180 Matematika 1508237247
1218 201512376618 Asriansyah SMP NEGERI 1 MUARA UYA 157 Bahasa Inggris 1508237661
1219 201512388859 Widarto SMP NEGERI 2 MUARA UYA 154 (PPKn) 1508238885
1220 201512398790 Abdul Rahman SMP NEGERI 1 banua lawas 100 Ilmu Pengetahuan Sosial (IPS) 1508239879
1221 201512399655 Hj. Saudah SMP HASBUNALLAH 157 Bahasa Inggris 1508239965
1222 201512405366 Baihaki SMP NEGERI 9 MUARA UYA 156 Bahasa Indonesia 1508240536
1223 201512405927 Siti Hadijah SMP NEGERI 2 TANJUNG 180 Matematika 1508240592
1224 201512407666 Maspalah SMP NEGERI 2 UPAU 097 Ilmu Pengetahuan Alam (IPA) 1508240766
1225 201512411254 Endang Fitriani SMP NEGERI 2 TANJUNG 154 (PPKn) 1508241125
1226 201512411652 Ahmad Yani SMP NEGERI 3 KELUA 180 Matematika 1508241165
1227 201512412997 Heldawati SMP NEGERI 2 HARUAI 100 Ilmu Pengetahuan Sosial (IPS) 1508241299
1228 201512419848 Sulaiman Fauji SMP NEGERI 7 TANJUNG 180 Matematika 1508241984
1229 201512430020 Tuti Purwanti SMP NEGERI 3 JARO 180 Matematika 1508243002
1230 201512430322 Hj. Hidayati SMP NEGERI 1 TANJUNG 097 Ilmu Pengetahuan Alam (IPA) 1508243032
1231 201512444601 Irina SMP NEGERI 1 TANJUNG 156 Bahasa Indonesia 150824446A
1232 201512455527 Jannawaty SMP NEGERI 2 TANJUNG 097 Ilmu Pengetahuan Alam (IPA) 1508245552
1233 201512462719 Hj. Arbaniah SMP NEGERI 4 TANJUNG 156 Bahasa Indonesia 1508246271
1234 201512465800 M. Syahab SMP PLUS MURUNG PUDAK 220 Pendidikan Jasmani dan Kesehatan 150824658A
1235 201512470569 Jainnuddin SMP NEGERI 7 HARUAI 156 Bahasa Indonesia 1508247056
1236 201512482719 Abdul Rasyid SMP NEGERI 3 JARO 157 Bahasa Inggris 1508248271
1237 201512496389 Mohd. Nor SMP NEGERI 3 TANJUNG 156 Bahasa Indonesia 1508249638
1238 201512503221 Muhammad Taberani,S.Pd SMP NEGERI 2 KELUA 220 Pendidikan Jasmani dan Kesehatan 1508250322
1239 201512505804 A. BAIKONI SMP NEGERI 1 BANUA LAWAS 100 Ilmu Pengetahuan Sosial (IPS) 150825058A
1240 201510522101 Fitriani Sari SMAN 1 TANTA 156 Bahasa Indonesia 1508522101
1241 201510540963 MASRIAH SMAN 3 TANJUNG 190 Biologi 1508540963
1242 201510547610 NURYANI SMAN 1 KELUA 810 Bimbingan dan Konseling  150854761A
1243 201510559511 DAHLIANA SMAN 3 TANJUNG 156 Bahasa Indonesia 1508559511
1244 201510566942 MUHAMMAD HATTA YUSNI SMAN 2 TANJUNG 220 Pendidikan Jasmani dan Kesehatan 1508566942
1245 201510587863 RELLA YASNORA SMAN 1 MUARA UYA 210 Ekonomi 1508587863
1246 201510613111 TAUFAN IZMY SMAN 1 HARUAI 156 Bahasa Indonesia 1508613111
1247 201510636016 SUDIYONO SMAN 1 HARUAI 184 Fisika 1508636016
1248 201510640448 DEWI AGUSTINA SMAN 3 TANJUNG 154 (PPKn) 1508640448
1249 201510650141 H. Ahmad Yunani SMAN 1 TANJUNG 810 Bimbingan dan Konseling  1508650141
1250 201510665273 KHAIRIYATUL FAJERIAH SMAN 1 KELUA 156 Bahasa Indonesia 1508665273
1251 201510666014 Rusdi Yusran SMAN 2 TANJUNG 210 Ekonomi 1508666014
1252 201510669806 SUMINI SMAN 1 JARO 180 Matematika 1508669806
1253 201510728375 SUKARNADI SMAS HASBUNALLAH 100 Ilmu Pengetahuan Sosial (IPS) 1508728375
1254 201510775833 NYEK NURHAYATI SMAN 3 TANJUNG 207 Geografi 1508775833
1255 201510776722 MASYANA SMAN 1 KELUA 187 Kimia 1508776722
1256 201510788837 MAISYANTI DISI FATIMAH SMAN 2 TANJUNG 167 Bahasa Arab 1508788837
1257 201510791425 Walintje Tuhumena SMAN 1 TANJUNG 810 Bimbingan dan Konseling  1508791425
1258 201510915819 Salasiah SMAN 1 TANTA 187 Kimia 1508915819
1259 201510938188 EDA HANDAYANI SMAN 2 TANJUNG 210 Ekonomi 1508938188
1260 201510969885 Mudjiono SMAN 1 TANJUNG 187 Kimia 1508969885
1261 201510979250 H. Baihakki SMAN 1 TANJUNG 184 Fisika 150897925A
1262 201511021563 Hj. Fenti Fatimah SMAN 1 TANJUNG 190 Biologi 1508102156
1263 201511025895 HELLA YANI SMAN 1 TANJUNG 184 Fisika 1508102589
1264 201511105981 Sadikun SMAN 1 TANJUNG 154 (PPKn) 1508110598
1265 201511126758 TOTOK SUWARDONO SMAN 1 HARUAI 184 Fisika 1508112675
1266 201511170755 ZAINAL ARIFIN SMAN 1 HARUAI 810 Bimbingan dan Konseling  1508117075
1267 201511193084 Yati SMAN 1 TANTA 187 Kimia 1508119308
1268 201511194058 DEDY MASMULYADI SMAN 2 TANJUNG 184 Fisika 1508119405
1269 201511205011 ANDRI HANDAYANI SMAN 2 TANJUNG 157 Bahasa Inggris 1508120501
1270 201511217572 RAKHMAWATI SMAN 2 TANJUNG 214 Sosiologi 1508121757
1271 201511224515 Norrahmah SMAN 1 TANTA 214 Sosiologi 1508122451
1272 201511245465 Bardini Dwi Chandra SMAN 1 TANJUNG 157 Bahasa Inggris 1508124546
1273 201511264621 MASKANAH SMAN 1 MUARA UYA 810 Bimbingan dan Konseling  1508126462
1274 201511311034 TAUFIKURAHMAN SMAN 1 TANJUNG 154 (PPKn) 1508131103
1275 201511342022 ALPIANOR SMAN 2 TANJUNG 210 Ekonomi 1508134202
1276 201511348743 Luteni SMAN 1 TANTA 190 Biologi 1508134874
1277 201512483339 Dra. Mis Yuliati Noor SMP NEGERI 7 HARUAI 154 (PPKn) 1508248333
1278 201512512872 Budi Mulia SMP N 1 MUARA HARUS 097 Ilmu Pengetahuan Alam (IPA) 1508251287
1279 201512516471 H.Bastami SMPN 8 TANJUNG 180 Matematika 1508251647
1280 201511354375 FAJERIANOR SMAN 1 TANJUNG 220 Pendidikan Jasmani dan Kesehatan 1508135437
1281 201511356456 RAUDATUL JANNAH SMAN 2 TANJUNG 210 Ekonomi 1508135645
1282 201511382299 HIDAYAT SMAN 2 TANJUNG 190 Biologi 1508138229
1283 201511399962 Nur Cahaya SMAN 1 TANJUNG 156 Bahasa Indonesia 1508139996
1284 201511453312 NURUL KAMARIAH SMAN 2 TANJUNG 190 Biologi 1508145331
1285 201511498912 HAJI ZAMRONI SMAN 1 KELUA 157 Bahasa Inggris 1508149891
1286 201511541809 WARNIDAH SMAN 2 TANJUNG 156 Bahasa Indonesia 150815418A
1287 201511543900 ASNAL MAKSUDAH SMAN 1 UPAU 187 Kimia 150815439A
1288 201511572326 Asmadi SMAN 1 TANTA 100 Ilmu Pengetahuan Sosial (IPS) 1508157232
1289 201511575660 MAYA ZULAYHA SMAN 2 TANJUNG 157 Bahasa Inggris 1508157566
1290 201511578994 SURASA SMAN 2 TANJUNG 184 Fisika 1508157899
1291 201511587338 Mahli SMAN 1 TANTA 220 Pendidikan Jasmani dan Kesehatan 1508158733
1292 201511620465 ANNISA DIAH SMAN 1 MUARA HARUS 187 Kimia 1508162046
1293 201511632290 ANITA SMAN 1 KELUA 187 Kimia 1508163229
1294 201511708836 PELITA MAISUSIANA SMAN 2 TANJUNG 190 Biologi 1508170883
1295 201511710412 Lia Indriani SMAN 1 TANJUNG 207 Geografi 1508171041
1296 201511736267 YULIATUN MUSLIMAH SMAN 2 TANJUNG 187 Kimia 1508173626
1297 201511740925 SYAIFUL ARIFIN SMAN 2 TANJUNG 187 Kimia 1508174092
1298 201511749023 JUHRANSYAH SMAN 2 TANJUNG 180 Matematika 1508174902
1299 201511772725 ALFIAH YUSILAWATY SMAN 1 KELUA 154 (PPKn) 1508177272
1300 201511781639 RETNO DUMILAH SMAN 2 TANJUNG 157 Bahasa Inggris 1508178163
1301 201511782928 WAGIMIN SMAN 1 KELUA 187 Kimia 1508178292
1302 201511805509 SITI MAISARAH SMAN 3 TANJUNG 157 Bahasa Inggris 150818055A
1303 201511807367 ARBAINAH SMAN 2 TANJUNG 156 Bahasa Indonesia 1508180736
1304 201511813009 Halimatusshaleha SMAN 1 TANJUNG 157 Bahasa Inggris 150818130A
1305 201511849808 Marzukki Raihan SMAN 1 KELUA 180 Matematika 150818498A
1306 201511855100 JUNIAR SMAN 2 TANJUNG 204 Sejarah Indonesia 150818551A
1307 201511859979 MUHAMMAD JOHANSYAH SMAN 1 MUARA HARUS 180 Matematika 1508185997
1308 201511881650 EVI ELIASTI SMAN 2 TANJUNG 154 (PPKn) 1508188165
1309 201511919314 RINA SARI WARDHANI SMAN 2 TANJUNG 180 Matematika 1508191931
1310 201511929545 SRI MAULINA SMAN 1 MUARA HARUS 154 (PPKn) 1508192954
1311 201511987444 Ida Adhiani SMAN 1 TANJUNG 810 Bimbingan dan Konseling  1508198744
1312 201511998332 ARIF RAKHMAN HAKIM SMAN 2 TANJUNG 810 Bimbingan dan Konseling  1508199833
1313 201512019018 ABDUL MUZAKIR SMAN 3 TANJUNG 204 Sejarah Indonesia 1508201901
1314 201512036944 TRI HARIATI NINGSIH SMAN 3 TANJUNG 210 Ekonomi 1508203694
1315 201512055157 LINA SEGITA SMAN 2 TANJUNG 810 Bimbingan dan Konseling  1508205515
1316 201512088052 SUPAT SMAN 1 MUARA UYA 184 Fisika 1508208805
1317 201512098421 Tri Suwandani SMAN 1 TANJUNG 207 Geografi 1508209842
1318 201512099547 BAIDILLAH SMAN 1 KELUA 810 Bimbingan dan Konseling  1508209954
1319 201512118042 Ida Juraida SMAN 1 TANJUNG 210 Ekonomi 1508211804
1320 201510370955 DRS TARMIJI SMKN 1 TANJUNG 615 Pemasaran 1508370955
1321 201510386826 LIS SULASTRINI SMKN 1 TANJUNG 539 Administrasi Perkantoran 1508386826
1322 201510551974 NURLATIFAH SMKN 1 TANJUNG 539 Administrasi Perkantoran 1508551974
1323 201510552919 FARIDA HERAWATI SMKN 1 TANJUNG 525 Teknik Komputer dan Jaringan 1508552919
1324 201510558524 NURUDDIN FATHNANI SMKN 2 TANJUNG 180 Matematika (SMK) 1508558524
1325 201510662035 Hermani, S.Pd SMKN 1 MUARA UYA 154 (PPKn) 1508662035
1326 201510713123 H.YUSRIF ALFITRI SMKN 1 BANUA LAWAS 154 (PPKn) 1508713123
1327 201510721198 MUZALIPAH SMKN 1 BANUA LAWAS 190 Biologi (Agrobisnis) 1508721198
1328 201510782433 ONA IRIYANI SMKN 1 TANJUNG 157 Bahasa Inggris 1508782433
1329 201510813300 YUSMA DAHNIAR SMKN 1 MURUNG PUDAK 190 Biologi (Kesehatan) 150881330A
1330 201510921419 FAUZIAH SMKN 1 TANJUNG 190 Biologi (Agrobisnis) 1508921419
1331 201510932646 Abdurrahim, S.Pd, SST SMKN 2 TANJUNG 180 Matematika (SMK) 1508932646
1332 201510961014 Armiati Sri Yuliana SMKN 1 TANJUNG 100 Ilmu Pengetahuan Sosial (IPS) 1508961014
1333 201510985891 Aspihani Matleh SMK N 2 TANJUNG 553 ATPH 1508985891
1334 201511001467 ANY RAHMAWATY SMKN 1 BANUA LAWAS 553 ATPH 1508100146
1335 201511790429 KIBDI HADI SMAN 1 BINTANG ARA 190 Biologi 1508179042
1336 201511967762 H SAPRANI SMAN 1 KELUA 204 Sejarah Indonesia 1508196776
1337 201511982185 SUMARDI SMAN 1 HARUAI 190 Biologi 1508198218
1338 201512126929 GALUH NUR HIDAYAH SMAN 2 TANJUNG 180 Matematika 1508212692
1339 201512132784 RISNA HERLIANI SMAN 3 TANJUNG 184 Fisika 1508213278
1340 201512154283 Fathul Janah SMAN 1 MUARA HARUS 156 Bahasa Indonesia 1508215428
1341 201512181883 Yuta Kasih SMAN 1 TANJUNG 187 Kimia 1508218188
1342 201512189427 MISDALIA ELFAH SMAN 1 HARUAI 157 Bahasa Inggris 1508218942
1343 201512196937 FIKRIAH SMAN 1 MUARA HARUS 190 Biologi 1508219693
1344 201512235481 NANIN HARIYATI SMAN 2 TANJUNG 154 (PPKn) 1508223548
1345 201512236788 PRIAJI SMAN 1 MUARA HARUS 210 Ekonomi 1508223678
1346 201512255778 NUR HALIFAH SMAN 1 TANJUNG 190 Biologi 1508225577
1347 201512262120 ELIS SURIANTI SMAN 3 TANJUNG 330 TIK/KKPI 1508226212
1348 201512283940 ARIS KUMORO SMAN 1 HARUAI 187 Kimia 1508228394
1349 201512300017 Hj. Aida Mulia SMAN 1 TANJUNG 180 Matematika 1508230001
1350 201512307502 SAUDAH SMAN 1 KELUA 184 Fisika 150823075A
1351 201512317475 Tumrawang SMAN 1 TANJUNG 156 Bahasa Indonesia 1508231747
1352 201512329269 HADI SMAN 3 TANJUNG 220 Pendidikan Jasmani dan Kesehatan 1508232926
1353 201512361421 Nurmiani SMAN 1 TANJUNG 157 Bahasa Inggris 1508236142
1354 201512383156 Harni SMAN 1 TANJUNG 204 Sejarah Indonesia 1508238315
1355 201512423896 NOR IPANSYAH SMAN 1 HARUAI 220 Pendidikan Jasmani dan Kesehatan 1508242389
1356 201512440247 Pairan SMAN 1 TANJUNG 204 Sejarah Indonesia 1508244024
1357 201512445244 AKHMAD SA'BANDI SMAN 2 TANJUNG 220 Pendidikan Jasmani dan Kesehatan 1508244524
1358 201512460221 ELIMASDIATI SMAN 2 TANJUNG 156 Bahasa Indonesia 1508246022
1359 201512461954 HAYATUN NUFUS SMAN 3 TANJUNG 156 Bahasa Indonesia 1508246195
1360 201510831524 Yusnina SMA NEGERI 1 TANTA 204 Sejarah Indonesia 1508831524
1361 201511060659 HAIRATUL ASLAMIAH SMKN 1 TANJUNG 156 Bahasa Indonesia 1508106065
1362 201511169250 SUNARYO SMKN 1 TANJUNG 156 Bahasa Indonesia 1508116925
1363 201511189577 SITI FATIMAH SMKN 1 TANJUNG 540 Akuntansi 1508118957
1364 201511205093 YENNY ANGGERIA WILIANTY SMKS TABALONG 157 Bahasa Inggris 1508120509
1365 201511268402 SRI BUDI HARTINI SMKN 1 TANJUNG 330 TIK/KKPI 150812684A
1366 201511289206 BAMBANG HERMANTO SMKN 1 BANUA LAWAS 220 Pendidikan Jasmani dan Kesehatan 150812892A
1367 201511302515 ERNAWATI SMKN 1 TANJUNG 539 Administrasi Perkantoran 1508130251
1368 201511344570 JUMINDAN SURYANTO SMK AN NOOR 331 Kewirausahaan 1508134457
1369 201511345028 JURMIANA SMKN 1 TANJUNG 154 (PPKn) 1508134502
1370 201511412695 YOSEPH DIYEN SMK TABALONG 403 Teknik Konstruksi Batu dan Beton 1508141269
1371 201511506762 RUDIYANTO SMKN 1 HARUAI 810 Bimbingan dan Konseling  1508150676
1372 201511520293 EKO MUDOFAH NISWATI SMKN 1 PUGAAN 180 Matematika (SMK) 1508152029
1373 201511582432 DODI HARTONI UNJANG SMK TABALONG 403 Teknik Konstruksi Batu dan Beton 1508158243
1374 201511637022 MUSTAFA FAHMI SMKN 1 BANUA LAWAS 330 TIK/KKPI 1508163702
1375 201511757730 MARIATUL KIPTIAH SMKN 1 TANJUNG 615 Pemasaran 1508175773
1376 201511766556 ANI HARYATI SMKN 1 MURUNG PUDAK 097 IPA Terapan 1508176655
1377 201511802883 KARTINI SMKN 1 MURUNG PUDAK 180 Matematika (SMK) 1508180288
1378 201511805501 HERLIANA SMKN 1 TANJUNG 539 Administrasi Perkantoran 150818055A
1379 201511828643 SITI RUKAYAH SMKN 1 BANUA LAWAS 810 Bimbingan dan Konseling  1508182864
1380 201511847038 Ipril Hadi SMKN 1 TANJUNG 220 Pendidikan Jasmani dan Kesehatan 1508184703
1381 201511889047 ECON SMKN 1 TANJUNG 180 Matematika (SMK) 1508188904
1382 201511912043 KAMIRANSYAH SMKN 1 BANUA LAWAS 693 Budidaya Perikanan 1508191204
1383 201511947561 HENNY TRIANA DAHRIE SMKN 1 BANUA LAWAS 553 ATPH 1508194756
1384 201512003753 RADIANAH SMKN 1 TANJUNG 540 Akuntansi 1508200375
1385 201512010887 ISMAIL MARZUKI SMKN 1 MUARA UYA 331 Kewirausahaan 1508201088
1386 201512022209 NOOR AMALIA RAHMI SMK AN NOOR 157 Bahasa Inggris 150820222A
1387 201512036903 BUHARI SMKN 1 TANJUNG 157 Bahasa Inggris 150820369A
1388 201512071204 RIANI HASRIAH SMKN 1 TANJUNG 180 Matematika (SMK) 150820712A
1389 201512094551 SUJILIANTO SMKN 1 TANJUNG 157 Bahasa Inggris 1508209455
1390 201512106492 ERMINA ZURAIDA SMK TABALONG 154 (PPKn) 1508210649
1391 201512117346 RAMSIDAH SMKN 1 TANJUNG 156 Bahasa Indonesia 1508211734
1392 201512141023 RUSTAMAJI DINAS PENDIDIKAN 097 IPA Terapan 1508214102
1393 201512158524 YESSY RISMAYANI SMKN 1 TANJUNG 810 Bimbingan dan Konseling  1508215852
1394 201512188013 SARIDA MUZLIFAH SMKN 1 TANJUNG 810 Bimbingan dan Konseling  1508218801
1395 201512299430 SRI HARTINI SMKN 1 PUGAAN 539 Administrasi Perkantoran 1508229943
1396 201512307266 ZAENAL MASUD SMKN 1 TANJUNG 539 Administrasi Perkantoran 1508230726
1397 201512325435 BAINAH SMKN 2 TANJUNG 097 IPA Terapan 1508232543
1398 201512345446 M.TAUFIQ RAHMAN SMKN 1 BANUA LAWAS 330 TIK/KKPI 1508234544
1399 201512365188 BAMBANG WAHONO SMKN 1 TANJUNG 331 Kewirausahaan 1508236518
1400 201501412403 Suriyadi SD NEGERI NALUI 1 026 Guru Kelas SD (Kelas Bawah) 150814124A
1401 201510370186 Abdurrahman, S.pd UPT IP KEC. MURUNG PUDAK 027 Guru Kelas SD (Kelas Atas) 1508370186
1402 201510398303 H. HADIANSYAH UPT IP KEC. KELUA 027 Guru Kelas SD (Kelas Atas) 1508398303
1403 201510494617 ZULKIFLI LUBIS DINAS P & K TABALONG 810 Bimbingan dan Konseling  1508494617
1404 201510521002 Siti Mas Ani UPT IP KEC. HARUAI 027 Guru Kelas SD (Kelas Atas) 1508521002
1405 201510576148 Suwito DINAS P & K TABALONG 157 Bahasa Inggris 1508576148
1406 201510580324 Hj.Marijatun SD NEGERI MABUUN 027 Guru Kelas SD (Kelas Atas) 1508580324
1407 201510705966 Taberani UPT IP KEC. BANUA LAWAS 027 Guru Kelas SD (Kelas Atas) 1508705966
1408 201510750480 H. Rusmanuddin Fauzie, S.pd UPT IP KEC. TANJUNG 027 Guru Kelas SD (Kelas Atas) 150875048A
1409 201510787261 Abdul Khalid SD NEGERI NALUI 1 027 Guru Kelas SD (Kelas Atas) 1508787261
1410 201510796537 Marliah UPT IP KEC. TANJUNG 027 Guru Kelas SD (Kelas Atas) 1508796537
1411 201510929104 Ashadianto, S.pd. UPT IP KEC. KELUA 027 Guru Kelas SD (Kelas Atas) 1508929104
1412 201510944861 Suryanto, S.pd. UPT IP KEC. HARUAI 027 Guru Kelas SD (Kelas Atas) 1508944861
1413 201511032471 JAMHIR UPT IP KEC. MUARA UYA 027 Guru Kelas SD (Kelas Atas) 1508103247
1414 201511159328 HJ. SITI ZURAIDAH UPT IP KEC. KELUA 027 Guru Kelas SD (Kelas Atas) 1508115932
1415 201511338719 DAMHURI UPT IP KEC. KELUA 027 Guru Kelas SD (Kelas Atas) 1508133871
1416 201511432789 SUZY EVELINA UPT IP KEC. MURUNG PUDAK 027 Guru Kelas SD (Kelas Atas) 1508143278
1417 201511545354 Syahril UPT IP KEC HARUAI 027 Guru Kelas SD (Kelas Atas) 1508154535
1418 201511551610 M. KHALID FIKRY DINAS PENDIDIKAN KAB. TABALONG 810 Bimbingan dan Konseling  1508155161
1419 201511763164 Abdu Rahim DINAS P & K TABALONG 156 Bahasa Indonesia 1508176316
1420 201511819729 MUHAMMAD SARPANI UPT IP KEC. MUARA UYA 027 Guru Kelas SD (Kelas Atas) 1508181972
1421 201511832331 ABDUL BASID DINAS PENDIDIKAN KAB. TABALONG   1508183233
1422 201511864784 Rusminiwati DINAS P & K TABALONG 097 Ilmu Pengetahuan Alam (IPA) 1508186478
1423 201511947104 MUKERAN UPT IP KEC. MUARA UYA 027 Guru Kelas SD (Kelas Atas) 150819471A
1424 201512070786 ERMAN S UPT IP KEC. BANUA LAWAS 027 Guru Kelas SD (Kelas Atas) 1508207078
1425 201512120076 JAUHARI EFFENDI DINAS PENDIDIKAN KAB. TABALONG 210 Ekonomi 1508212007
1426 201512127392 AKHMAD SUHAIMI UPT IP KEC. TANJUNG 027 Guru Kelas SD (Kelas Atas) 1508212739
1427 201512250902 Ida Ningsih, S.pd. UPT IP KEC. TANJUNG 180 Matematika 150822509A
1428 201512340604 AHMAD SAPAWI UPT IP KEC. MUARA UYA 027 Guru Kelas SD (Kelas Atas) 150823406A
1429 201512367675 SITI JUMIATI SMKN 1 BANUA LAWAS 693 Budidaya Perikanan 1508236767
1430 201512389156 RUSNANI SMKN 1 TANJUNG 540 Akuntansi 1508238915
1431 201512426326 SYARIFAH HIDAYATI SMKN 1 TANJUNG 180 Matematika (SMK) 1508242632
1432 201512472631 H JAINUDIN R DINAS PENDIDIKAN 210 Ekonomi 1508247263
1433 201512498831 HASRIATI UPT. IP KEC. M. PUDAK 020 Guru Kelas TK 1508249883
1434 201512502324 ENOK SUCI HARTINI SMKN 1 MURUNG PUDAK 154 (PPKn) 1508250232
1435 201512509242 ARIS DWIKUSWANDI SMKN 1 PUGAAN 539 Administrasi Perkantoran 1508250924
1436 201512513848 FATHURRAHMAN SMKN 2 TANJUNG 157 Bahasa Inggris 1508251384
.

Terima kasih sudah membaca Nomor Peserta dan Nomor Verifikasi UKG 2015 Tabalong (di SMKN 1 Tjg Lab.2)
Bagikan:

Loading...

Untuk pertanyaan yang memerlukan respon cepat, silakan gunakan Whatsapp.

0 Response to "Nomor Peserta dan Nomor Verifikasi UKG 2015 Tabalong (di SMKN 1 Tjg Lab.2)"

Posting Komentar

Silakan ambil manfaat dan jika ada pertanyaan, silakan tulis di form komentar.
Terima kasih atas komentar yang sopan dan menyejukkan.